Weather History for Cozumel, Mexico

Change the Weather History Date:

Thursday, April 4, 2013

  Actual Average Record
Temperature  
Mean Temperature 78 °F -  
Max Temperature 84 °F 85 °F 89 °F (1998)
Min Temperature 73 °F 73 °F 57 °F (2009)
Cooling Degree Days 14    
Growing Degree Days 28 (Base 50)    
Moisture  
Dew Point 72 °F    
Average Humidity 84    
Maximum Humidity 100    
Minimum Humidity 66    
Precipitation  
Precipitation 0.00 in - - ()
Sea Level Pressure  
Sea Level Pressure 29.92 in    
Wind  
Wind Speed 9 mph ()    
Max Wind Speed 17 mph    
Max Gust Speed 23 mph    
Visibility 7.0 miles    
Events      
Averages and records for this station are not official NWS values.
T = Trace of Precipitation, MM = Missing Value Source: Averaged Metar Reports

Daily Weather History Graph

Daily Weather History Graph

Search for Another Location

Airport:

Trip Planner

Search our weather history database for the weather conditions in past years. The results will help you decide how hot, cold, wet, or windy it might be!

Date:

Astronomy

Apr. 04, 2013 Rise Set
Actual Time 5:38 AM CST 6:03 PM CST
Civil Twilight 5:15 AM CST 6:25 PM CST
Nautical Twilight 4:50 AM CST 6:51 PM CST
Astronomical Twilight 4:23 AM CST 7:17 PM CST
Moon 1:21 AM CST (4/4) 1:01 PM CST (4/4)
Length of Visible Light 13h 09m
Length of Day
12h 24m
Waning Crescent, 33% of the Moon is Illuminated
Apr 4
Waning Crescent
Apr 10
New
Apr 18
First Quarter
Apr 25
Full
May 2
Last Quarter

Hourly Weather History & Observations

Time (CST) Temp. Heat Index Dew Point Humidity Pressure Visibility Wind Dir Wind Speed Gust Speed Precip Events Conditions
12:40 AM 75.2 °F - 71.6 °F 89% 29.94 in 7.0 mi SE 10.4 mph - N/A   Partly Cloudy
2:52 AM 75.2 °F - 71.6 °F 89% 29.91 in 7.0 mi SE 10.4 mph - N/A   Partly Cloudy
3:40 AM 75.2 °F - 71.6 °F 89% 29.87 in 7.0 mi SE 8.1 mph - N/A   Partly Cloudy
5:24 AM 75.2 °F - 71.6 °F 89% 29.90 in 7.0 mi SE 6.9 mph - N/A   Partly Cloudy
5:49 AM 73.4 °F - 71.6 °F 94% 29.86 in 7.0 mi SSE 8.1 mph - N/A   Partly Cloudy
6:42 AM 75.2 °F - 71.6 °F 89% 29.92 in 7.0 mi NE 9.2 mph - N/A   Scattered Clouds
7:45 AM 78.8 °F - 73.4 °F 83% 29.94 in 7.0 mi SSE 17.3 mph - N/A   Mostly Cloudy
8:40 AM 78.8 °F - 73.4 °F 83% 29.98 in 7.0 mi SE 11.5 mph 23.0 mph N/A   Mostly Cloudy
9:43 AM 80.6 °F 84.6 °F 71.6 °F 74% 29.95 in 7.0 mi SSE 11.5 mph 23.0 mph N/A   Mostly Cloudy
10:42 AM 80.6 °F 84.6 °F 71.6 °F 74% 29.95 in 7.0 mi SE 11.5 mph 23.0 mph N/A   Mostly Cloudy
11:44 AM 82.4 °F 87.2 °F 71.6 °F 70% 29.93 in 7.0 mi SSE 15.0 mph - N/A   Mostly Cloudy
12:41 PM 82.4 °F 87.2 °F 71.6 °F 70% 29.92 in 7.0 mi South 6.9 mph 18.4 mph N/A   Mostly Cloudy
1:43 PM 84.2 °F 89.6 °F 71.6 °F 66% 29.90 in 7.0 mi SSE 13.8 mph - N/A   Mostly Cloudy
2:40 PM 82.4 °F 87.2 °F 71.6 °F 70% 29.92 in 7.0 mi SE 17.3 mph - N/A   Mostly Cloudy
3:40 PM 80.6 °F 84.6 °F 71.6 °F 74% 29.89 in 7.0 mi SSE 13.8 mph - N/A   Mostly Cloudy
4:40 PM 80.6 °F 84.6 °F 71.6 °F 74% 29.87 in 7.0 mi SE 13.8 mph - N/A   Scattered Clouds
5:40 PM 77.0 °F - 71.6 °F 83% 29.85 in 7.0 mi SSE 5.8 mph - N/A   Mostly Cloudy
6:41 PM 75.2 °F - 71.6 °F 89% 29.90 in 7.0 mi SE 6.9 mph - N/A   Overcast
7:40 PM 75.2 °F - 73.4 °F 94% 29.92 in 7.0 mi SSE 5.8 mph - N/A   Overcast
8:40 PM 75.2 °F - 73.4 °F 94% 29.99 in 7.0 mi Calm Calm - N/A   Overcast
9:54 PM 75.2 °F - 73.4 °F 94% 29.96 in 7.0 mi SE 4.6 mph - N/A   Overcast
10:41 PM 73.4 °F - 73.4 °F 100% 29.93 in 7.0 mi South 5.8 mph - N/A   Mostly Cloudy
11:42 PM 75.2 °F - 73.4 °F 94% 29.87 in 7.0 mi South 6.9 mph - N/A   Mostly Cloudy